Seitenverwaltung

Live am Platz

Die Bilder unserer Webcams werden alle 5 Minuten aktualisiert.

Sonnenaufgang:

04:20 UTC / 06:20 Lokal

Sonnenuntergang:

18:34 UTC / 20:34 Lokal

METAR (17.08.2022 10:50 UTC):

EDNY 170850Z 09003KT 040V150 CAVOK 25/14 Q1012
VFR

TAF (17.08.2022 07:00 UTC):

TAF EDNY 170500Z 1706/1806 34004KT CAVOK

Alle Angaben unverbindlich und ohne Gewähr. Zeiten genähert.

Für den Verkehrslandeplatz Konstanz werden keine offiziellen Wetterinformationen ausgegeben. Daher werden zur Orientierung Daten des nahegelegenen Flughafens Friedrichshafen dargestellt.

Das Landeentgelt kann bei uns auch mit aerops bezahlt werden. Die App für's Handy ist kostenfrei erhältlich.